Vorticity
3 1 2 4 5 5 3 3 5 8 10 10 9 8 7 6 5 7 9 11 11 9 8 7 7 8 10 11 12 13 14 16 17 16 16 16 17 17 16 16 16 16 15 13 13 14 15 15 14 14 16 17 17 16 15 12 9 10 13 13 11 11 12 11 10 7 6 5 5 5 7 9 10 12 13 5 -0 2 2 1 1 2 -0 -0 4 4 5 10
1 2 4 6 6 4 3 5 9 10 10 8 7 6 6 6 8 10 11 10 8 7 7 8 9 9 10 11 13 14 16 18 17 17 18 19 19 17 16 16 16 16 17 15 13 13 14 16 14 14 15 16 17 16 15 15 13 10 11 12 12 13 14 13 12 9 7 6 5 4 4 7 8 10 12 11 8 2 2 5 2 0 -1 -2 0 2 7 10
1 4 6 7 5 4 6 10 11 10 8 7 7 6 7 8 10 10 9 7 6 7 9 9 10 9 11 13 16 18 20 21 19 18 18 20 19 15 15 15 14 14 14 15 14 13 13 14 14 13 14 15 17 17 15 15 15 14 12 10 10 13 15 14 14 11 9 6 6 5 4 5 5 7 10 14 13 5 2 5 3 0 2 4 2 2 8 11
3 6 7 5 4 7 10 11 9 8 7 7 7 7 8 9 9 7 6 6 7 9 9 10 11 12 15 18 22 22 23 24 19 17 18 18 14 12 13 13 13 12 12 13 13 13 12 13 13 12 11 12 14 16 16 16 16 15 14 13 11 13 15 17 15 12 11 8 7 6 5 4 3 5 8 11 14 12 6 3 4 2 4 9 5 2 5 9
6 7 5 4 7 11 11 9 7 6 6 7 8 8 8 8 6 6 7 8 9 9 9 11 14 18 22 25 25 23 24 23 16 17 17 12 10 10 11 11 12 12 12 12 12 12 12 13 14 13 12 11 12 14 14 15 17 16 15 16 14 11 13 18 17 14 13 11 8 6 6 4 3 5 6 8 12 16 13 8 8 2 2 8 6 5 4 6
8 5 5 7 11 11 9 7 6 6 7 8 8 7 7 6 6 7 9 9 8 8 11 16 21 24 27 26 24 23 22 17 14 17 13 8 9 10 10 10 11 11 11 12 12 12 12 13 13 14 14 13 13 14 13 13 16 18 16 15 14 12 11 14 19 17 13 12 10 7 6 5 4 5 4 6 11 13 13 12 12 5 -0 4 3 4 5 4
6 5 8 11 12 9 7 6 6 8 8 7 6 6 7 7 8 10 10 9 6 9 16 23 25 25 25 24 22 21 17 14 15 14 8 8 10 10 10 10 9 9 9 9 11 12 12 12 13 13 14 14 14 14 14 12 15 19 17 16 15 12 11 12 16 18 15 12 11 10 8 5 5 5 4 6 8 8 11 13 15 9 1 2 -1 -0 6 6
5 9 12 11 9 7 6 7 8 8 7 6 6 7 8 7 10 11 10 7 5 14 25 26 22 21 22 21 20 18 15 16 14 10 8 10 10 9 9 7 6 7 8 9 10 11 12 13 14 14 14 14 15 15 15 13 14 18 16 15 16 14 12 11 12 15 16 14 12 12 9 6 5 5 6 7 6 6 9 13 17 16 8 4 -1 -3 3 7
9 12 12 9 8 7 6 7 8 6 5 7 7 8 7 8 13 12 9 5 7 22 27 21 18 19 21 19 18 17 14 14 9 8 10 9 8 8 6 5 6 8 8 9 8 9 10 11 12 13 13 14 15 16 16 15 14 17 16 12 15 15 14 13 13 15 17 16 13 12 11 9 6 6 8 5 3 6 8 10 16 19 15 10 4 -3 -2 3
12 12 9 8 7 6 7 7 6 5 6 8 8 8 9 13 15 11 8 4 12 27 24 16 17 19 21 17 17 18 13 11 9 9 10 8 7 6 5 6 8 8 8 7 6 7 7 10 12 13 14 15 16 17 17 18 15 16 17 14 13 14 15 15 14 14 16 17 14 12 12 10 7 8 10 5 2 6 8 9 13 18 18 15 10 3 -1 -1
12 9 8 7 7 6 6 6 5 6 8 9 9 10 13 16 16 10 5 6 19 28 19 15 17 19 21 17 17 17 10 10 10 8 8 7 6 5 7 8 8 7 6 6 6 8 12 15 16 16 17 16 17 19 19 20 18 16 16 15 14 12 14 15 15 14 13 17 17 12 11 11 11 10 7 4 4 7 8 8 11 15 17 16 14 10 5 1
9 8 8 7 6 6 6 5 6 8 9 10 10 11 15 18 13 6 4 12 25 23 15 16 18 20 23 17 16 14 7 8 8 7 7 6 7 7 8 8 8 6 5 7 8 13 18 19 20 22 22 21 20 20 21 20 19 18 16 16 15 12 12 14 16 16 11 16 19 14 12 12 13 11 4 3 6 6 7 8 10 12 13 15 15 13 11 8
8 8 7 6 5 6 6 6 8 8 7 9 9 12 19 18 9 3 7 19 24 18 14 19 19 21 23 17 14 12 5 4 5 6 7 7 8 8 8 8 6 6 7 10 12 16 19 16 16 18 21 25 24 22 21 22 21 20 17 15 15 13 13 13 15 17 13 13 18 15 12 15 13 9 6 6 6 5 6 8 11 12 11 12 13 12 13 12
8 8 6 5 6 6 6 7 8 7 7 9 10 15 19 13 4 4 13 23 21 15 17 22 21 21 22 16 13 10 4 3 4 5 7 9 9 8 9 8 6 7 10 11 13 13 14 13 12 12 15 18 21 25 25 25 23 21 20 18 15 13 12 14 14 15 14 11 16 16 11 15 14 9 9 8 6 7 6 7 10 13 12 11 12 12 12 12
7 7 5 5 6 6 6 7 8 7 8 11 13 16 15 6 4 10 19 22 16 15 21 24 21 20 20 16 13 9 3 3 4 5 9 10 9 9 8 6 5 8 11 11 9 7 12 18 20 18 15 13 13 20 27 28 25 22 23 21 18 16 11 12 15 14 15 11 14 15 10 15 16 10 10 8 7 9 6 6 8 11 12 11 11 11 12 12
7 6 5 6 6 6 7 7 8 9 11 14 15 14 10 6 9 16 21 18 15 20 26 24 18 17 16 14 13 9 4 2 4 6 9 10 9 9 7 5 6 9 12 9 3 4 10 17 25 27 24 18 10 9 18 27 29 24 25 24 20 20 12 9 15 16 15 12 12 14 9 14 18 12 10 8 10 10 6 6 7 8 11 11 10 10 11 11
7 5 5 7 6 6 7 8 9 10 13 14 14 12 9 10 14 19 20 15 16 25 27 20 15 16 15 15 13 9 4 2 5 7 9 10 9 9 8 6 7 10 12 8 2 4 5 4 13 21 23 20 10 5 12 20 26 24 24 26 21 22 18 10 12 16 16 13 12 13 11 13 16 13 10 8 11 12 8 7 7 7 8 11 11 10 10 10
6 5 6 6 5 6 6 8 10 12 15 12 12 14 12 13 15 19 18 13 21 30 26 17 13 15 15 15 13 7 4 3 6 9 9 10 11 10 7 6 8 10 12 11 5 5 5 2 4 9 13 17 10 8 13 14 19 24 22 22 20 21 21 14 11 14 17 14 12 12 11 12 14 12 10 8 10 12 9 7 7 8 7 9 11 10 9 9
5 5 5 5 5 6 6 8 10 14 15 11 13 15 11 12 16 21 16 13 28 32 22 16 13 15 14 12 11 6 4 5 7 9 9 10 12 10 7 5 7 10 13 11 6 6 6 5 8 8 8 12 10 9 13 11 15 25 25 21 22 24 22 16 12 12 15 16 13 11 11 13 14 13 9 8 11 12 10 7 6 8 8 7 9 10 9 6
4 4 5 5 4 6 6 7 11 15 14 13 14 10 7 14 19 23 18 14 29 29 17 16 13 14 14 10 9 7 5 7 8 9 9 9 11 12 9 5 7 11 13 9 4 4 3 3 9 11 8 8 10 9 10 11 12 20 28 25 21 27 26 17 12 12 15 17 13 9 11 13 14 14 9 9 12 12 10 7 5 7 8 8 8 9 8 5
4 4 4 5 5 6 6 7 13 16 14 14 12 6 10 18 17 23 25 18 25 25 17 13 10 10 12 10 8 7 6 6 9 8 7 10 12 13 11 6 9 14 13 8 7 3 -1 2 7 12 9 3 7 11 11 13 13 15 25 30 23 25 29 19 12 12 15 19 13 8 13 15 14 13 10 8 9 10 11 8 5 6 7 8 7 7 7 4
4 4 5 5 6 7 7 9 13 16 15 12 8 7 14 19 16 21 28 25 23 21 15 11 9 9 9 8 7 5 3 5 11 8 7 13 14 12 11 8 12 13 10 9 8 2 0 7 12 12 8 2 5 16 16 13 16 15 20 32 29 24 29 24 14 11 15 20 12 7 14 16 15 13 9 9 8 9 11 9 6 7 7 6 6 6 7 4
3 5 6 6 7 8 7 10 14 16 15 10 6 10 17 19 19 24 27 26 22 16 13 12 12 12 10 9 7 5 2 3 11 12 11 15 14 13 11 10 12 11 9 9 4 1 5 11 13 9 7 4 5 15 19 14 14 16 18 32 35 26 28 26 15 12 17 20 12 6 15 16 14 14 10 9 10 9 11 10 6 6 7 5 6 8 6 4
4 6 6 7 8 8 8 11 15 16 13 8 6 13 19 18 23 30 27 23 20 14 12 13 12 12 11 11 7 5 5 7 14 17 14 14 15 14 12 11 12 9 8 5 1 3 11 14 11 10 9 4 4 12 21 17 12 14 17 29 37 30 26 22 16 17 19 19 11 5 14 19 15 14 12 10 11 9 10 9 6 5 6 5 6 7 4 4
5 6 7 9 8 8 10 12 16 16 11 7 7 14 19 20 26 33 28 23 20 14 12 10 9 9 8 9 8 7 9 12 17 19 17 16 15 12 10 12 10 7 4 1 3 8 13 15 12 12 10 3 5 14 23 21 11 14 18 26 37 33 27 19 15 19 19 16 11 7 18 22 15 14 12 11 11 9 8 8 6 5 5 4 4 6 5 4
5 6 8 9 9 9 11 14 16 15 10 6 9 16 19 22 28 29 24 21 18 13 9 7 8 8 9 11 11 10 12 16 20 20 16 13 11 10 11 13 10 6 4 2 6 11 17 19 12 9 6 5 8 16 29 24 11 14 17 25 39 35 26 19 13 18 20 14 9 13 21 19 17 17 12 9 11 10 8 8 7 5 4 4 5 6 6 3
5 6 8 9 9 10 12 15 16 13 9 6 11 17 20 25 29 24 18 16 14 11 7 7 8 8 12 13 9 11 16 20 20 13 10 11 12 14 13 11 8 8 13 11 6 14 22 15 8 7 8 14 15 19 30 24 13 17 15 23 41 37 27 19 14 20 21 16 13 15 19 18 20 18 10 9 11 10 8 6 6 5 4 5 5 5 5 3
5 6 9 9 10 11 14 16 15 12 8 7 13 18 22 27 27 21 15 13 11 10 10 9 8 9 14 13 11 17 19 16 13 11 14 16 13 13 10 7 8 14 23 19 12 19 18 6 7 14 16 20 21 22 23 15 12 17 16 26 39 37 29 20 18 21 21 25 20 12 17 22 20 12 7 11 11 8 8 5 5 4 5 6 5 4 4 2
6 7 9 9 11 13 15 16 13 11 8 7 14 20 24 28 25 17 13 11 10 12 12 8 9 12 13 14 16 16 14 10 10 14 16 10 6 7 4 3 8 15 20 18 18 18 10 7 12 18 21 17 14 17 15 11 14 15 19 33 39 35 26 16 16 15 21 34 21 8 21 23 15 11 9 11 9 9 9 6 5 4 5 7 5 4 3 2
6 7 9 10 13 14 16 15 11 11 8 8 16 23 26 28 21 13 12 12 10 12 12 7 11 14 13 19 20 12 11 10 9 12 12 7 7 3 1 8 13 14 18 22 23 15 11 14 10 15 28 22 11 10 9 14 18 14 21 38 41 32 21 15 11 4 23 39 14 6 25 21 16 16 10 10 9 9 11 6 5 5 4 7 6 3 2 2
5 7 10 11 14 15 16 12 10 11 7 9 18 24 29 27 16 10 10 10 10 13 14 10 12 16 15 20 21 12 8 9 9 10 9 7 9 6 7 17 18 14 22 27 19 11 16 18 9 15 29 28 20 12 9 16 18 16 27 40 37 24 18 18 5 3 31 34 5 11 28 20 19 17 8 9 9 8 10 6 4 5 4 5 6 4 2 2
5 8 11 12 15 16 15 10 11 12 6 10 20 24 30 25 13 9 8 10 12 13 16 14 13 18 16 14 15 9 4 7 9 8 9 13 18 17 18 21 15 13 24 27 18 12 15 16 13 14 19 23 23 18 19 22 15 18 31 35 30 20 20 15 -3 8 35 20 -1 17 30 22 17 13 9 10 8 8 9 7 5 4 4 4 4 5 3 3
6 9 11 14 16 15 13 9 11 12 7 12 20 26 30 22 11 9 6 9 15 12 14 17 12 12 13 11 9 5 5 9 11 12 14 19 19 18 21 19 10 14 21 20 21 22 19 16 14 15 18 17 18 24 32 26 16 25 35 30 24 21 20 6 -9 12 33 14 4 18 26 24 14 8 13 10 7 9 7 6 7 4 4 4 3 4 3 3
6 10 12 15 15 14 12 9 12 11 8 14 20 26 30 19 10 9 7 11 17 13 10 14 16 13 11 12 9 10 13 10 11 16 16 15 15 13 14 9 8 19 17 13 28 31 22 20 17 22 27 19 24 40 41 28 20 28 35 27 22 24 14 -7 -8 20 28 12 12 20 21 23 13 7 14 11 6 9 7 6 6 5 5 5 4 4 3 2
6 10 14 15 14 13 10 9 13 10 9 15 19 26 30 18 9 9 10 12 14 13 9 7 14 14 5 6 9 10 16 17 14 16 16 15 14 11 8 6 14 20 9 15 33 22 12 23 27 31 31 20 30 42 32 22 20 26 34 29 27 22 -7 -23 1 26 20 10 17 19 17 18 13 7 12 13 9 6 8 7 5 6 5 3 5 4 3 4
7 12 16 15 13 12 9 11 13 9 10 18 19 25 28 18 9 8 10 11 8 10 10 4 5 6 1 4 5 1 12 26 22 16 19 17 10 9 8 12 22 16 7 23 28 10 9 21 27 35 31 19 24 28 18 14 21 34 34 21 20 4 -28 -18 22 28 11 13 22 17 13 16 13 9 11 13 10 7 8 9 7 7 5 3 4 5 4 4
8 13 16 15 13 11 10 12 11 8 12 19 20 24 26 18 9 7 10 11 7 7 9 3 1 7 8 7 6 2 11 25 22 19 22 15 7 8 10 20 24 9 9 23 16 13 22 21 25 33 22 12 18 22 19 12 22 35 23 14 15 -8 -28 -3 29 27 14 17 23 15 9 11 13 16 15 9 10 11 9 9 10 8 7 5 3 4 4 4
8 14 15 14 13 10 10 12 10 9 15 19 20 25 26 16 8 8 10 10 7 7 9 3 3 10 9 8 9 9 15 18 14 19 21 15 12 9 12 24 16 -0 8 19 12 19 33 31 30 20 6 15 25 22 19 15 22 30 23 21 7 -17 -5 18 20 23 23 18 20 16 8 7 13 20 15 6 12 18 10 9 12 10 9 9 5 4 4 2
10 15 15 13 12 9 10 12 7 10 18 19 18 26 26 14 7 8 11 11 7 7 9 5 6 9 5 8 8 8 21 21 13 15 14 17 19 11 15 20 9 0 2 12 18 18 24 28 18 6 11 32 36 22 18 17 17 24 29 19 -13 -20 20 35 17 19 26 19 17 16 8 4 14 24 15 6 12 16 12 11 12 11 11 11 9 6 5 3
12 16 13 12 12 9 11 11 7 11 20 17 15 26 28 15 7 8 11 12 6 6 11 9 10 9 2 6 2 1 20 24 16 14 8 14 18 13 15 12 11 10 -0 14 28 8 8 16 9 19 32 30 23 15 22 24 10 19 28 -1 -23 -2 27 25 11 17 29 19 7 20 26 10 14 26 14 10 14 11 12 11 8 12 13 14 12 8 8 6
13 14 12 12 11 9 12 10 8 13 18 15 16 26 30 17 8 8 9 11 8 7 11 10 10 8 2 4 1 -1 13 19 18 16 9 12 14 14 16 8 14 17 8 31 30 -7 5 19 14 31 29 12 9 8 29 28 1 23 22 -35 -31 20 32 20 8 12 31 15 -11 19 44 18 13 26 14 13 17 8 9 9 6 12 13 13 15 10 9 8
13 12 10 12 11 10 13 9 8 16 16 13 15 25 34 23 7 6 8 8 10 9 10 8 6 7 4 2 3 3 9 16 20 17 14 14 12 17 18 13 27 25 14 36 27 -2 18 28 26 35 21 19 14 6 37 19 -15 34 25 -42 -10 33 17 13 10 11 33 16 -11 17 39 18 15 27 19 16 15 8 11 12 9 13 12 12 15 11 11 10
12 12 10 11 10 9 13 10 10 18 15 12 13 20 35 30 9 5 8 8 10 10 11 5 -1 8 10 5 10 10 6 14 20 12 12 12 9 18 19 17 35 29 9 14 9 7 23 24 31 27 12 28 13 1 42 7 -23 44 24 -30 20 31 -5 5 7 11 30 13 1 20 28 20 17 22 23 18 13 12 15 14 13 16 14 13 15 14 12 10
11 12 10 10 10 8 12 12 12 16 13 13 17 16 25 29 13 5 7 9 11 11 12 8 2 8 11 10 19 15 0 8 18 10 8 10 5 11 17 19 27 24 14 7 -4 6 17 16 32 21 -0 16 4 6 37 -8 -17 48 16 -16 29 17 -1 15 -1 9 27 5 4 18 17 19 16 16 25 18 11 17 19 17 14 14 16 13 14 16 14 11
11 12 9 8 10 9 11 11 12 16 12 14 24 19 16 22 14 5 6 9 11 9 10 10 6 7 9 12 21 17 3 7 16 12 7 9 7 3 8 20 19 11 17 21 10 11 10 8 27 23 1 3 11 30 30 -17 -2 44 11 -0 22 3 15 31 5 15 24 0 9 18 7 13 14 16 24 16 12 18 21 23 18 12 14 14 14 18 18 14
11 12 9 8 10 8 10 11 11 15 13 13 25 26 17 17 14 5 5 11 12 8 6 6 7 10 12 14 19 22 18 10 11 17 9 5 10 2 0 18 22 9 13 24 19 10 6 8 19 22 9 7 29 45 14 -15 18 39 8 0 4 2 30 34 10 15 11 -2 14 17 4 10 16 17 18 16 16 17 19 24 23 17 15 14 15 17 19 17
11 12 10 9 10 9 10 12 11 13 13 12 23 29 19 14 16 9 3 10 13 7 5 4 8 13 12 14 18 22 23 13 6 15 13 5 7 4 4 18 23 17 12 16 19 15 13 12 15 25 20 17 42 39 -8 -9 33 34 6 -9 -15 5 32 23 7 11 5 -3 7 14 10 7 11 15 15 15 15 12 16 21 22 24 21 17 19 17 18 18
11 11 10 8 11 10 10 13 12 11 12 12 19 31 24 11 15 14 4 7 12 8 4 3 9 12 8 14 20 17 22 24 13 13 14 8 7 8 13 19 21 22 17 11 14 24 26 14 14 30 17 7 45 37 -28 -19 33 31 5 -15 -19 9 28 17 7 7 4 -2 -1 15 16 -0 3 16 13 11 10 11 19 19 18 28 27 21 21 19 19 18
10 10 10 8 9 10 11 14 14 10 12 12 15 29 31 13 8 12 7 8 13 9 5 6 12 13 6 11 21 20 22 22 15 14 14 10 11 12 13 17 18 20 24 17 7 13 26 20 17 26 5 -5 44 41 -31 -33 22 31 5 -16 -12 17 27 13 5 6 8 4 -3 9 14 2 7 15 9 6 7 12 19 16 16 27 29 23 21 18 17 16
10 9 9 8 8 10 12 14 16 11 10 13 13 25 36 22 5 6 6 7 13 11 6 8 11 9 5 7 16 22 21 15 11 14 11 9 12 10 9 16 15 12 17 20 12 9 21 26 23 25 9 3 38 40 -11 -21 16 27 6 -15 -11 17 27 12 2 6 9 6 0 4 10 11 11 8 6 7 7 11 19 22 24 25 20 14 12 13 14 14
9 9 10 8 8 9 12 15 17 12 8 12 13 20 36 33 12 3 2 4 12 12 6 8 9 5 6 12 19 22 18 17 18 15 10 11 12 10 11 13 11 9 10 16 19 13 14 27 34 26 11 9 30 30 -1 -8 15 26 10 -13 -16 10 27 13 1 6 7 6 8 2 1 13 14 6 7 9 8 12 17 22 27 22 14 10 9 13 14 11
8 9 9 9 8 7 12 17 17 13 8 10 13 17 32 39 22 6 3 3 8 11 7 6 7 4 4 12 23 24 15 15 20 17 15 13 8 10 15 14 13 9 2 10 18 10 15 39 41 13 -5 7 28 25 1 -4 16 27 11 -12 -15 10 29 14 0 7 8 7 11 2 -3 11 14 7 8 7 6 12 12 13 16 14 14 17 16 17 20 17
Height
5793 5790 5787 5784 5781 5778 5775 5772 5768 5765 5761 5758 5755 5752 5749 5746 5742 5739 5735 5732 5729 5725 5722 5719 5716 5713 5710 5707 5704 5702 5700 5698 5695 5694 5694 5693 5692 5692 5691 5690 5691 5690 5691 5691 5692 5692 5692 5694 5695 5697 5699 5701 5703 5704 5705 5706 5709 5710 5713 5715 5716 5723 5729 5737 5743 5747 5749 5752 5759 5763 5766 5770 5774 5780 5787 5791 5795 5800 5804 5807 5812 5815 5815 5814 5818 5823 5825 5829
5789 5786 5783 5780 5777 5774 5770 5767 5763 5760 5756 5753 5750 5747 5743 5740 5736 5733 5729 5725 5721 5718 5715 5712 5708 5705 5703 5700 5697 5695 5693 5691 5689 5687 5686 5686 5685 5684 5684 5684 5684 5684 5684 5685 5685 5685 5686 5688 5689 5691 5692 5694 5696 5697 5697 5699 5701 5703 5707 5706 5710 5720 5725 5732 5739 5741 5742 5745 5751 5755 5758 5763 5767 5773 5778 5782 5788 5794 5797 5802 5808 5812 5813 5811 5815 5819 5823 5826
5786 5783 5779 5776 5773 5769 5766 5762 5758 5755 5751 5748 5745 5741 5738 5734 5730 5726 5723 5719 5715 5711 5708 5704 5701 5698 5695 5692 5689 5688 5686 5684 5682 5681 5680 5679 5678 5678 5678 5678 5678 5678 5678 5679 5679 5680 5680 5682 5684 5685 5686 5687 5689 5690 5691 5691 5693 5697 5698 5699 5707 5715 5718 5726 5732 5732 5735 5738 5743 5748 5749 5754 5759 5763 5767 5773 5781 5786 5790 5798 5803 5808 5811 5809 5812 5817 5821 5823
5782 5779 5775 5772 5768 5765 5761 5757 5754 5750 5747 5743 5740 5736 5732 5728 5724 5720 5717 5713 5709 5705 5701 5698 5694 5691 5688 5684 5682 5680 5679 5678 5676 5675 5675 5673 5672 5672 5672 5672 5672 5673 5673 5674 5674 5674 5674 5676 5678 5679 5679 5681 5682 5683 5685 5685 5686 5688 5690 5696 5705 5709 5711 5718 5722 5724 5727 5729 5734 5739 5741 5745 5751 5754 5759 5767 5773 5778 5785 5793 5799 5804 5808 5807 5809 5814 5818 5821
5778 5775 5771 5768 5764 5760 5756 5753 5749 5746 5742 5739 5735 5730 5726 5722 5719 5715 5711 5707 5703 5699 5695 5691 5687 5684 5681 5678 5675 5673 5672 5671 5670 5670 5669 5668 5667 5667 5667 5667 5667 5668 5668 5669 5669 5668 5669 5670 5671 5672 5673 5675 5675 5677 5678 5678 5679 5681 5687 5694 5699 5701 5701 5708 5714 5715 5718 5721 5725 5730 5734 5738 5741 5746 5754 5760 5765 5774 5783 5789 5795 5801 5804 5804 5806 5809 5813 5817
5775 5771 5768 5764 5760 5756 5752 5749 5745 5742 5738 5734 5729 5725 5721 5717 5713 5710 5706 5702 5697 5693 5688 5684 5680 5677 5674 5672 5670 5668 5666 5665 5665 5666 5665 5663 5663 5663 5663 5663 5663 5663 5663 5663 5663 5663 5664 5664 5665 5666 5667 5669 5669 5670 5671 5672 5672 5675 5683 5688 5689 5690 5691 5699 5707 5707 5708 5712 5716 5722 5727 5730 5734 5741 5747 5753 5761 5772 5779 5783 5789 5795 5799 5800 5800 5803 5808 5812
5771 5767 5764 5760 5756 5752 5748 5745 5741 5737 5733 5729 5724 5720 5716 5712 5708 5704 5700 5696 5691 5687 5682 5677 5673 5671 5668 5666 5664 5663 5661 5660 5660 5661 5660 5659 5659 5659 5659 5659 5658 5658 5658 5658 5658 5658 5659 5658 5659 5660 5661 5663 5663 5664 5665 5665 5666 5670 5678 5680 5680 5681 5682 5691 5697 5697 5698 5702 5709 5716 5720 5724 5729 5735 5739 5746 5757 5766 5772 5777 5782 5787 5791 5793 5794 5797 5802 5806
5767 5764 5760 5756 5752 5749 5745 5741 5737 5733 5728 5724 5720 5716 5711 5707 5703 5699 5694 5690 5685 5680 5675 5671 5668 5665 5663 5661 5660 5658 5657 5657 5657 5656 5656 5656 5656 5655 5655 5655 5654 5654 5653 5652 5652 5652 5652 5652 5653 5654 5655 5656 5656 5658 5658 5659 5661 5664 5670 5671 5671 5672 5674 5681 5686 5687 5690 5696 5704 5710 5714 5719 5724 5728 5733 5743 5754 5761 5766 5772 5776 5781 5786 5788 5789 5793 5798 5802
5764 5760 5756 5753 5749 5745 5741 5737 5733 5728 5724 5720 5715 5711 5706 5702 5697 5693 5688 5684 5679 5674 5670 5666 5663 5661 5659 5657 5655 5654 5653 5654 5653 5652 5652 5652 5651 5651 5651 5650 5649 5649 5648 5647 5647 5647 5646 5646 5647 5648 5649 5649 5650 5651 5651 5653 5655 5657 5661 5662 5663 5665 5668 5674 5679 5683 5687 5692 5698 5703 5708 5712 5717 5721 5728 5741 5750 5755 5761 5767 5772 5776 5781 5784 5785 5788 5793 5797
5760 5757 5753 5749 5745 5741 5737 5733 5728 5724 5720 5715 5711 5706 5701 5697 5692 5688 5683 5678 5673 5668 5664 5661 5659 5656 5654 5652 5651 5650 5650 5650 5649 5649 5649 5648 5647 5647 5646 5646 5645 5644 5642 5642 5641 5641 5641 5640 5640 5640 5641 5642 5643 5643 5644 5645 5648 5650 5651 5653 5657 5659 5661 5668 5674 5679 5683 5687 5692 5696 5700 5706 5713 5716 5723 5737 5743 5748 5755 5761 5767 5771 5775 5779 5780 5783 5787 5792
5757 5753 5750 5746 5742 5738 5734 5729 5724 5720 5715 5711 5706 5701 5696 5692 5687 5683 5678 5673 5668 5663 5659 5657 5654 5651 5650 5647 5646 5647 5646 5645 5645 5645 5645 5644 5643 5642 5641 5641 5640 5639 5638 5637 5636 5635 5635 5633 5633 5633 5633 5634 5635 5637 5636 5637 5640 5642 5643 5645 5650 5652 5655 5661 5667 5673 5676 5681 5686 5688 5692 5700 5707 5709 5720 5733 5737 5742 5749 5754 5760 5764 5769 5773 5775 5778 5782 5787
5754 5750 5746 5743 5739 5735 5730 5725 5721 5716 5711 5706 5701 5696 5691 5687 5682 5677 5673 5667 5662 5658 5655 5652 5650 5647 5645 5643 5642 5644 5643 5642 5642 5641 5640 5640 5639 5637 5637 5636 5635 5634 5633 5631 5630 5630 5629 5627 5626 5626 5626 5626 5628 5629 5628 5630 5631 5635 5635 5637 5642 5644 5648 5655 5659 5665 5670 5675 5680 5682 5683 5691 5699 5705 5717 5728 5731 5737 5742 5748 5754 5759 5763 5766 5769 5773 5776 5782
5751 5747 5743 5739 5736 5731 5726 5721 5717 5712 5706 5702 5697 5691 5686 5682 5677 5672 5667 5662 5657 5653 5650 5648 5645 5642 5641 5639 5639 5640 5639 5638 5638 5638 5636 5635 5634 5633 5632 5631 5630 5629 5628 5626 5624 5624 5623 5622 5621 5620 5620 5620 5621 5621 5622 5623 5624 5627 5627 5628 5635 5637 5642 5649 5653 5658 5664 5668 5674 5674 5673 5683 5695 5702 5713 5722 5727 5731 5736 5743 5750 5754 5758 5761 5764 5768 5772 5777
5748 5744 5740 5736 5732 5728 5723 5718 5713 5708 5702 5697 5692 5687 5682 5677 5672 5667 5662 5657 5652 5648 5646 5643 5640 5638 5637 5636 5635 5635 5635 5635 5635 5634 5633 5632 5630 5629 5628 5627 5626 5624 5623 5621 5619 5619 5618 5617 5616 5616 5615 5614 5615 5615 5616 5617 5616 5619 5619 5621 5628 5630 5636 5643 5646 5651 5656 5660 5668 5666 5663 5677 5692 5699 5709 5717 5721 5726 5731 5739 5745 5749 5753 5756 5760 5764 5768 5772
5745 5741 5737 5733 5729 5724 5719 5714 5709 5704 5698 5693 5687 5682 5677 5672 5667 5662 5657 5652 5647 5644 5641 5638 5635 5634 5633 5633 5632 5632 5631 5631 5631 5630 5629 5628 5627 5625 5624 5623 5621 5620 5619 5617 5615 5614 5614 5613 5612 5611 5611 5610 5610 5609 5610 5610 5610 5612 5612 5616 5621 5623 5629 5636 5638 5643 5648 5654 5660 5657 5657 5673 5688 5695 5704 5709 5713 5721 5727 5734 5739 5744 5748 5751 5755 5760 5764 5769
5742 5738 5734 5730 5725 5721 5716 5711 5705 5699 5694 5688 5682 5677 5673 5668 5662 5657 5652 5646 5642 5639 5637 5634 5631 5630 5630 5629 5629 5629 5628 5627 5626 5626 5625 5624 5623 5621 5620 5618 5617 5617 5615 5614 5612 5611 5610 5609 5608 5607 5606 5606 5605 5604 5604 5605 5606 5607 5606 5609 5613 5616 5621 5627 5631 5636 5642 5647 5650 5650 5654 5668 5682 5691 5698 5702 5709 5716 5721 5729 5734 5739 5743 5747 5751 5755 5760 5765
5739 5735 5731 5726 5722 5717 5712 5707 5701 5695 5689 5684 5678 5673 5668 5663 5657 5652 5647 5642 5637 5635 5633 5629 5627 5626 5626 5626 5626 5625 5625 5623 5622 5621 5621 5620 5619 5617 5616 5614 5613 5612 5611 5610 5609 5608 5606 5606 5605 5603 5602 5602 5601 5599 5599 5600 5601 5600 5597 5600 5604 5607 5610 5616 5624 5630 5635 5639 5643 5648 5651 5661 5675 5684 5690 5696 5704 5710 5716 5724 5730 5734 5739 5743 5747 5752 5756 5761
5737 5732 5728 5723 5718 5713 5708 5703 5697 5691 5685 5679 5675 5669 5663 5658 5653 5648 5643 5637 5634 5632 5629 5626 5624 5624 5623 5623 5623 5622 5621 5620 5619 5618 5616 5616 5615 5614 5612 5610 5609 5608 5607 5605 5604 5604 5603 5603 5602 5600 5598 5597 5596 5594 5593 5594 5594 5591 5591 5592 5594 5598 5602 5608 5618 5625 5629 5632 5638 5643 5645 5654 5668 5677 5684 5691 5697 5704 5711 5719 5725 5730 5735 5739 5744 5748 5753 5757
5734 5729 5725 5720 5715 5710 5704 5699 5693 5687 5681 5674 5670 5665 5659 5654 5648 5643 5638 5633 5630 5629 5626 5623 5622 5621 5620 5620 5619 5618 5618 5616 5615 5614 5613 5612 5611 5609 5608 5607 5605 5603 5602 5600 5599 5599 5599 5598 5597 5596 5594 5593 5591 5589 5588 5588 5586 5586 5587 5586 5588 5593 5597 5603 5612 5619 5623 5625 5632 5637 5639 5648 5660 5670 5679 5686 5692 5698 5706 5713 5719 5725 5730 5735 5740 5745 5749 5754
5731 5727 5722 5717 5711 5706 5701 5695 5689 5683 5678 5671 5665 5659 5655 5650 5644 5640 5634 5628 5626 5624 5622 5620 5619 5618 5617 5617 5616 5615 5614 5613 5611 5610 5609 5608 5607 5605 5603 5602 5601 5600 5598 5596 5594 5595 5595 5593 5593 5592 5590 5588 5586 5584 5582 5581 5581 5582 5582 5582 5583 5587 5592 5598 5606 5614 5618 5621 5628 5633 5634 5643 5654 5664 5675 5681 5686 5692 5700 5708 5714 5721 5726 5730 5736 5741 5746 5751
5728 5724 5719 5713 5708 5702 5697 5692 5686 5680 5674 5668 5662 5656 5650 5645 5640 5636 5631 5625 5622 5620 5618 5617 5616 5615 5615 5614 5614 5612 5611 5609 5607 5605 5604 5603 5602 5600 5599 5598 5597 5596 5594 5592 5590 5590 5589 5589 5588 5587 5585 5584 5581 5579 5577 5576 5576 5576 5576 5577 5579 5582 5588 5594 5600 5608 5613 5617 5625 5628 5628 5638 5648 5659 5670 5676 5680 5687 5696 5704 5710 5717 5722 5726 5732 5737 5742 5747
5726 5721 5716 5710 5704 5699 5694 5688 5682 5676 5670 5665 5659 5653 5646 5641 5635 5631 5628 5623 5620 5618 5616 5615 5614 5613 5612 5611 5611 5609 5608 5607 5604 5600 5599 5599 5597 5596 5595 5593 5592 5591 5589 5588 5587 5585 5584 5584 5583 5581 5579 5578 5577 5575 5572 5571 5570 5570 5571 5572 5574 5578 5584 5590 5596 5603 5608 5612 5618 5620 5624 5635 5645 5655 5666 5671 5676 5684 5692 5699 5706 5713 5718 5722 5727 5733 5738 5743
5723 5718 5713 5707 5701 5696 5690 5685 5679 5673 5667 5662 5656 5649 5643 5637 5632 5627 5624 5621 5618 5616 5615 5613 5612 5611 5610 5609 5608 5607 5605 5604 5601 5596 5594 5594 5593 5591 5591 5590 5588 5587 5585 5584 5582 5581 5580 5580 5578 5575 5574 5573 5572 5570 5568 5566 5565 5565 5566 5568 5571 5575 5579 5585 5592 5598 5603 5607 5612 5616 5621 5632 5641 5650 5661 5667 5673 5681 5687 5694 5701 5707 5713 5718 5724 5729 5734 5738
5720 5715 5710 5704 5698 5693 5687 5681 5676 5669 5664 5659 5652 5646 5640 5635 5630 5626 5622 5619 5617 5615 5613 5612 5611 5609 5608 5606 5605 5604 5602 5599 5597 5593 5591 5590 5589 5588 5587 5585 5584 5583 5582 5579 5578 5576 5576 5575 5572 5570 5568 5567 5566 5564 5563 5561 5561 5561 5562 5564 5567 5572 5575 5581 5588 5593 5599 5603 5609 5613 5617 5627 5636 5646 5657 5664 5668 5675 5681 5688 5695 5702 5709 5714 5720 5725 5730 5735
5718 5713 5707 5701 5695 5689 5684 5678 5672 5666 5661 5656 5650 5643 5637 5632 5628 5624 5621 5618 5615 5614 5612 5610 5609 5607 5605 5604 5602 5600 5598 5596 5593 5590 5588 5586 5585 5584 5583 5581 5580 5579 5577 5575 5573 5571 5571 5570 5567 5565 5563 5561 5560 5560 5559 5557 5557 5557 5559 5561 5564 5568 5571 5577 5584 5589 5593 5599 5606 5609 5614 5624 5633 5641 5653 5659 5663 5671 5677 5684 5691 5698 5705 5710 5715 5720 5726 5731
5715 5710 5704 5698 5692 5686 5681 5675 5669 5663 5658 5653 5647 5641 5635 5629 5625 5622 5619 5617 5614 5612 5611 5609 5607 5605 5603 5601 5598 5596 5595 5593 5590 5587 5585 5584 5582 5580 5579 5577 5576 5575 5573 5570 5568 5567 5567 5565 5562 5560 5558 5556 5554 5555 5556 5554 5552 5554 5557 5559 5559 5563 5568 5573 5580 5584 5589 5596 5602 5604 5610 5620 5628 5637 5649 5655 5660 5668 5674 5680 5688 5695 5700 5706 5711 5716 5721 5727
5712 5707 5701 5695 5689 5683 5677 5672 5666 5661 5655 5650 5644 5638 5632 5627 5623 5620 5617 5615 5613 5611 5609 5606 5604 5602 5600 5597 5595 5593 5591 5589 5587 5584 5582 5581 5579 5577 5575 5573 5571 5570 5568 5565 5563 5563 5562 5560 5557 5555 5553 5551 5550 5552 5553 5550 5547 5550 5555 5555 5555 5560 5565 5570 5576 5581 5586 5593 5598 5601 5607 5616 5624 5635 5646 5652 5657 5664 5669 5676 5684 5690 5696 5702 5708 5713 5717 5723
5710 5704 5699 5693 5687 5681 5674 5669 5663 5658 5653 5647 5641 5635 5630 5625 5621 5618 5616 5614 5612 5610 5607 5604 5601 5599 5597 5595 5592 5590 5588 5586 5584 5582 5579 5577 5575 5573 5571 5569 5567 5565 5563 5560 5558 5558 5556 5554 5552 5550 5548 5547 5547 5548 5548 5546 5544 5548 5552 5551 5552 5557 5562 5568 5574 5579 5586 5590 5594 5599 5605 5613 5622 5632 5642 5647 5652 5659 5665 5673 5681 5687 5693 5698 5704 5709 5714 5720
5707 5702 5696 5690 5684 5678 5672 5666 5661 5655 5650 5645 5639 5633 5628 5623 5620 5617 5615 5613 5610 5608 5605 5602 5600 5597 5595 5593 5590 5588 5585 5583 5581 5579 5577 5574 5572 5570 5568 5565 5562 5560 5558 5556 5554 5553 5551 5548 5547 5546 5544 5543 5544 5544 5544 5542 5542 5546 5548 5548 5551 5555 5560 5565 5571 5579 5584 5585 5591 5597 5603 5612 5619 5627 5636 5641 5647 5656 5664 5672 5678 5683 5689 5695 5701 5706 5712 5717
5704 5699 5693 5688 5681 5675 5669 5664 5659 5653 5648 5642 5637 5631 5626 5622 5619 5616 5614 5612 5609 5607 5604 5601 5598 5596 5594 5591 5588 5586 5584 5581 5579 5576 5574 5572 5569 5567 5564 5561 5559 5556 5554 5552 5550 5549 5546 5543 5542 5541 5540 5539 5539 5540 5540 5539 5541 5543 5544 5545 5549 5553 5557 5563 5570 5579 5581 5582 5590 5597 5602 5609 5615 5624 5634 5639 5646 5654 5661 5668 5673 5679 5685 5691 5697 5704 5709 5714
5702 5697 5691 5685 5679 5673 5667 5662 5657 5652 5646 5640 5635 5630 5625 5621 5618 5615 5613 5611 5609 5607 5604 5601 5597 5595 5592 5590 5587 5585 5583 5579 5576 5574 5571 5569 5566 5563 5560 5557 5555 5553 5550 5548 5546 5544 5542 5539 5538 5537 5536 5535 5535 5536 5536 5537 5538 5540 5541 5544 5548 5551 5556 5562 5570 5576 5576 5581 5592 5598 5602 5608 5614 5623 5632 5637 5644 5653 5659 5664 5669 5675 5681 5687 5694 5701 5706 5711
5700 5694 5688 5683 5677 5671 5665 5660 5655 5650 5644 5639 5633 5629 5624 5620 5617 5614 5612 5610 5608 5606 5603 5600 5597 5593 5591 5588 5586 5584 5581 5577 5574 5572 5569 5566 5563 5560 5557 5554 5552 5550 5547 5544 5542 5540 5538 5536 5534 5533 5532 5531 5532 5532 5532 5533 5535 5537 5538 5542 5546 5550 5556 5563 5569 5573 5575 5584 5593 5597 5602 5607 5613 5622 5629 5634 5642 5650 5657 5663 5667 5672 5678 5685 5692 5698 5704 5709
5697 5692 5686 5680 5675 5669 5663 5658 5653 5648 5642 5637 5632 5628 5623 5619 5616 5614 5611 5609 5607 5604 5601 5599 5596 5592 5590 5587 5584 5582 5580 5576 5572 5570 5566 5563 5561 5558 5555 5553 5550 5546 5543 5542 5539 5537 5535 5533 5531 5530 5529 5528 5528 5528 5529 5531 5533 5534 5537 5540 5545 5550 5557 5564 5569 5572 5576 5585 5593 5597 5601 5605 5612 5622 5628 5634 5642 5649 5654 5659 5664 5669 5676 5683 5690 5696 5702 5708
5695 5690 5684 5678 5673 5667 5661 5656 5651 5646 5641 5635 5631 5626 5621 5618 5616 5614 5611 5609 5606 5604 5600 5598 5595 5592 5589 5587 5584 5581 5578 5574 5570 5567 5564 5561 5559 5556 5553 5550 5547 5544 5541 5539 5536 5533 5533 5530 5528 5527 5526 5525 5526 5526 5528 5530 5532 5534 5537 5541 5546 5553 5560 5566 5570 5573 5578 5587 5593 5595 5599 5603 5612 5621 5628 5634 5641 5646 5652 5657 5662 5667 5673 5681 5688 5694 5700 5705
5693 5688 5682 5677 5671 5665 5659 5654 5650 5645 5639 5634 5629 5624 5621 5618 5616 5614 5611 5608 5605 5603 5600 5597 5595 5592 5589 5587 5583 5579 5575 5572 5568 5565 5562 5559 5556 5553 5551 5548 5545 5542 5539 5536 5533 5531 5530 5528 5526 5525 5524 5524 5524 5525 5527 5529 5531 5534 5537 5542 5549 5557 5565 5570 5573 5575 5580 5587 5591 5593 5597 5604 5611 5620 5627 5633 5639 5645 5651 5656 5661 5666 5671 5678 5685 5692 5698 5703
5691 5686 5681 5675 5669 5663 5658 5653 5648 5643 5638 5633 5628 5623 5620 5618 5615 5613 5610 5607 5604 5602 5599 5597 5595 5592 5590 5587 5582 5577 5573 5570 5567 5564 5561 5558 5555 5552 5549 5547 5544 5541 5538 5535 5532 5531 5529 5527 5525 5524 5524 5524 5525 5525 5527 5529 5533 5535 5538 5544 5552 5559 5567 5572 5574 5576 5579 5586 5590 5593 5598 5604 5610 5618 5626 5632 5639 5645 5652 5657 5662 5667 5671 5677 5683 5690 5695 5700
5690 5684 5679 5673 5667 5661 5656 5651 5646 5642 5637 5632 5627 5623 5619 5617 5614 5612 5609 5606 5603 5601 5598 5596 5594 5591 5588 5585 5581 5576 5572 5569 5565 5562 5560 5557 5554 5551 5548 5546 5543 5540 5538 5535 5533 5531 5529 5527 5525 5525 5525 5526 5526 5527 5529 5531 5534 5538 5542 5547 5553 5559 5566 5572 5574 5577 5581 5587 5592 5595 5600 5604 5610 5619 5626 5631 5637 5643 5650 5656 5662 5667 5671 5676 5683 5688 5693 5698
5688 5683 5677 5672 5666 5660 5655 5650 5645 5640 5635 5631 5626 5622 5619 5616 5614 5611 5609 5606 5603 5600 5597 5595 5593 5590 5587 5584 5580 5576 5572 5568 5565 5562 5559 5556 5554 5551 5547 5545 5542 5540 5538 5536 5533 5531 5529 5527 5527 5526 5526 5527 5528 5529 5532 5534 5536 5540 5545 5550 5556 5562 5568 5573 5576 5579 5583 5589 5594 5597 5601 5605 5611 5618 5624 5630 5635 5641 5648 5654 5659 5665 5670 5675 5681 5686 5691 5695
5687 5681 5676 5670 5665 5659 5654 5649 5644 5639 5634 5630 5625 5621 5618 5615 5613 5611 5608 5605 5601 5599 5597 5595 5592 5589 5586 5582 5579 5575 5571 5568 5564 5561 5558 5556 5554 5551 5547 5544 5542 5540 5538 5536 5534 5532 5530 5529 5529 5528 5528 5529 5530 5531 5534 5537 5540 5544 5547 5552 5559 5565 5570 5573 5577 5581 5585 5590 5595 5598 5602 5607 5610 5616 5623 5629 5635 5641 5647 5652 5657 5662 5668 5674 5680 5685 5689 5693
5686 5680 5674 5669 5663 5658 5653 5648 5643 5638 5633 5629 5625 5621 5618 5615 5612 5610 5607 5604 5600 5598 5596 5595 5592 5589 5586 5582 5578 5575 5571 5568 5564 5561 5559 5556 5554 5551 5548 5545 5543 5541 5539 5537 5535 5534 5533 5532 5531 5530 5530 5531 5532 5534 5537 5539 5542 5547 5551 5556 5562 5566 5570 5574 5578 5582 5586 5591 5596 5600 5603 5607 5611 5617 5624 5630 5635 5641 5646 5651 5656 5661 5666 5672 5678 5682 5686 5691
5685 5679 5673 5668 5663 5657 5653 5648 5643 5638 5633 5629 5624 5620 5617 5615 5613 5610 5606 5603 5600 5598 5596 5594 5592 5589 5585 5582 5579 5575 5571 5568 5564 5562 5559 5557 5554 5551 5548 5546 5545 5543 5540 5537 5536 5536 5535 5533 5533 5533 5533 5533 5535 5538 5541 5543 5546 5551 5556 5561 5564 5567 5572 5577 5580 5583 5587 5592 5598 5601 5604 5608 5613 5619 5625 5630 5635 5640 5644 5649 5654 5660 5665 5670 5675 5680 5685 5690
5684 5678 5673 5668 5663 5657 5652 5648 5643 5639 5634 5628 5624 5620 5617 5615 5612 5609 5606 5602 5599 5598 5596 5594 5592 5589 5585 5582 5579 5575 5572 5569 5565 5562 5560 5557 5555 5552 5550 5548 5546 5544 5541 5539 5538 5538 5537 5535 5534 5535 5535 5536 5539 5542 5545 5548 5551 5556 5559 5562 5565 5568 5573 5579 5583 5586 5590 5594 5599 5602 5606 5610 5615 5620 5625 5630 5635 5639 5643 5647 5653 5658 5664 5669 5673 5678 5683 5689
5682 5677 5672 5667 5662 5657 5652 5647 5642 5638 5633 5628 5623 5619 5617 5615 5612 5608 5605 5602 5600 5598 5597 5594 5592 5589 5585 5582 5579 5576 5572 5569 5566 5563 5561 5558 5556 5553 5552 5550 5547 5545 5544 5542 5541 5540 5539 5538 5538 5538 5538 5540 5542 5545 5548 5551 5554 5558 5562 5564 5567 5572 5576 5581 5585 5589 5592 5597 5601 5604 5608 5612 5615 5620 5625 5630 5634 5638 5642 5647 5652 5658 5663 5667 5671 5676 5682 5688
5681 5676 5671 5667 5662 5657 5652 5647 5642 5637 5632 5627 5623 5618 5615 5613 5612 5609 5606 5603 5600 5598 5597 5595 5592 5589 5585 5581 5579 5576 5572 5570 5567 5564 5561 5559 5557 5554 5553 5551 5548 5547 5545 5544 5543 5542 5542 5541 5541 5542 5542 5543 5546 5549 5551 5554 5557 5561 5565 5568 5572 5576 5580 5583 5587 5591 5595 5598 5602 5605 5609 5612 5616 5620 5625 5630 5634 5638 5642 5647 5652 5657 5662 5665 5670 5675 5681 5687
5679 5674 5670 5665 5661 5655 5651 5647 5642 5638 5633 5627 5623 5618 5615 5612 5610 5609 5607 5603 5600 5597 5596 5595 5592 5588 5585 5582 5580 5577 5574 5571 5568 5565 5562 5560 5558 5555 5554 5551 5549 5548 5547 5546 5545 5544 5544 5544 5544 5546 5546 5546 5548 5551 5554 5557 5560 5563 5568 5572 5576 5580 5583 5585 5589 5593 5597 5600 5604 5607 5610 5613 5617 5621 5626 5630 5635 5639 5643 5647 5651 5656 5661 5665 5670 5675 5681 5687
5678 5673 5668 5664 5659 5655 5650 5646 5642 5637 5633 5628 5623 5618 5615 5613 5610 5608 5606 5604 5600 5597 5595 5594 5591 5588 5585 5583 5580 5578 5574 5571 5569 5566 5563 5561 5559 5557 5555 5552 5550 5549 5548 5547 5547 5546 5546 5546 5547 5548 5549 5550 5551 5554 5557 5560 5563 5566 5570 5574 5578 5582 5585 5586 5590 5595 5599 5603 5606 5609 5612 5615 5619 5623 5627 5631 5635 5639 5642 5647 5652 5656 5660 5665 5670 5676 5681 5685
5677 5672 5667 5662 5658 5653 5649 5645 5640 5636 5633 5628 5624 5619 5615 5613 5611 5608 5605 5603 5601 5599 5596 5594 5591 5589 5586 5583 5580 5577 5574 5572 5569 5567 5565 5562 5560 5558 5556 5554 5552 5551 5550 5548 5548 5548 5548 5548 5549 5550 5552 5553 5555 5557 5561 5563 5566 5570 5574 5577 5580 5583 5586 5588 5592 5597 5601 5605 5608 5611 5614 5618 5621 5625 5628 5632 5636 5639 5643 5647 5652 5656 5660 5665 5670 5675 5680 5684
5675 5671 5666 5662 5657 5652 5648 5643 5639 5635 5632 5628 5624 5619 5614 5612 5611 5610 5606 5603 5601 5599 5598 5595 5592 5589 5587 5583 5579 5576 5574 5572 5569 5567 5565 5563 5561 5560 5558 5555 5553 5552 5551 5551 5550 5549 5549 5550 5551 5553 5554 5556 5558 5561 5564 5566 5569 5573 5576 5578 5581 5585 5588 5591 5595 5599 5603 5607 5610 5613 5616 5620 5623 5627 5630 5634 5637 5640 5644 5648 5652 5655 5659 5664 5669 5674 5678 5682
5674 5670 5665 5660 5656 5652 5648 5643 5639 5635 5631 5627 5624 5620 5615 5611 5609 5609 5608 5605 5602 5600 5599 5596 5593 5591 5588 5584 5580 5576 5574 5572 5570 5568 5566 5564 5563 5561 5559 5557 5555 5554 5553 5553 5552 5552 5552 5552 5554 5556 5557 5558 5561 5565 5567 5569 5572 5575 5577 5580 5583 5587 5590 5594 5597 5601 5604 5608 5612 5615 5618 5621 5625 5629 5632 5636 5639 5641 5644 5648 5651 5655 5659 5663 5668 5672 5676 5680
5673 5669 5665 5659 5655 5651 5647 5643 5638 5634 5630 5627 5623 5619 5616 5612 5608 5607 5607 5606 5603 5601 5600 5598 5595 5591 5588 5585 5582 5578 5575 5573 5571 5569 5567 5565 5564 5562 5561 5559 5557 5557 5556 5555 5554 5554 5554 5555 5556 5558 5560 5561 5564 5567 5569 5571 5574 5576 5579 5582 5586 5589 5593 5596 5599 5603 5606 5610 5613 5617 5620 5624 5627 5631 5634 5637 5639 5642 5644 5648 5651 5655 5659 5663 5667 5671 5674 5678
5673 5669 5665 5659 5654 5650 5646 5642 5638 5634 5630 5626 5623 5619 5616 5613 5610 5607 5605 5604 5603 5602 5601 5599 5595 5592 5589 5586 5584 5580 5577 5574 5572 5570 5568 5567 5565 5563 5562 5560 5559 5558 5558 5557 5557 5556 5555 5556 5558 5561 5562 5564 5566 5569 5571 5574 5576 5578 5581 5585 5588 5591 5594 5598 5602 5605 5608 5611 5615 5618 5622 5626 5629 5633 5636 5639 5641 5643 5645 5648 5652 5655 5659 5663 5667 5670 5673 5677
5671 5668 5664 5659 5654 5649 5645 5641 5637 5633 5629 5626 5622 5619 5616 5613 5611 5609 5606 5604 5602 5601 5600 5598 5595 5592 5590 5588 5585 5582 5578 5576 5574 5572 5570 5568 5566 5564 5563 5561 5560 5559 5559 5559 5559 5558 5557 5558 5561 5563 5565 5566 5568 5571 5574 5576 5579 5581 5584 5587 5590 5593 5597 5601 5604 5607 5610 5613 5616 5620 5624 5627 5631 5634 5637 5640 5642 5644 5647 5650 5653 5656 5660 5664 5667 5670 5673 5676